Regional Weather Roundup
Issued by NWS Kansas City/Pleasant Hill, MO

Home | Current Version | Previous Version | Text Only | Print | Product List | Glossary On
Versions: 1 2 3 4 5 6 7 8 9 10 11 12 13 14 15 16 17 18 19 20 21 22 23 24 25 26 27 28 29 30 31 32 33 34 35 36 37 38 39 40 41 42 43 44 45 46 47 48 49 50
000
ASUS43 KEAX 282010
RWREAX

WEATHER ROUNDUP FOR EASTERN KANSAS AND NORTHWEST MISSOURI
NATIONAL WEATHER SERVICE KANSAS CITY/PLEASANT HILL MO
200 PM CST FRI NOV 28 2014

KSZ040-057-103>105-MOZ028-029-037-043-282100-
...KANSAS CITY METROPOLITAN AREA...

CITY           SKY/WX    TMP DP  RH WIND       PRES   REMARKS
K.C. INTL      PTSUNNY   55  32  41 S14       29.82F
K.C. DOWNTOWN  SUNNY     59  31  34 SW12      29.83F
LEES SUMMIT    SUNNY     58  32  37 S13G21    29.84F
OLATHE - IXD   SUNNY     57  32  38 S15G25    29.84F
OLATHE - OJC   SUNNY     57  32  38 S12       29.83F
LAWRENCE       SUNNY     59  32  36 SW15      29.82F

$$

MOZ001>008-011>017-020>025-030>033-038>040-044>046-053-054-282100-
...NORTHERN AND CENTRAL MISSOURI...

CITY           SKY/WX    TMP DP  RH WIND       PRES   REMARKS
ST. JOSEPH     MOSUNNY   54  32  43 S15       29.80F
MOSBY          PTCLDY    55  32  41 S14       29.83F
WARRENSBURG    MOSUNNY   59  32  36 S15G22    29.85F
WHITEMAN AFB   MOSUNNY   60  34  38 SW20      29.85F
CLINTON        MOSUNNY   61  36  39 SW13G22   29.89F
SEDALIA        MOSUNNY   60  33  36 SW20G29   29.88F
WARSAW         NOT AVBL
MARSHALL       MOSUNNY   57  36  44 SW10G16   29.89F
CHILLICOTHE      N/A     53  34  48 S10       29.84F
KIRKSVILLE     MOSUNNY   49  33  54 SW9       29.87F

$$

MOZ041-047>049-056>058-063>065-088>090-097-282100-
...EASTERN AND SOUTHERN MISSOURI...

CITY           SKY/WX    TMP DP  RH WIND       PRES   REMARKS
ST. LOUIS INTL MOSUNNY   51  32  48 S14G20    29.99F
SPIRIT OF STL  MOSUNNY   52  32  46 S7G22     29.96F
COLUMBIA       MOSUNNY   59  34  39 S12       29.89F
JEFFERSON CITY SUNNY     58  32  37 S13G18    29.91F
MEXICO         SUNNY     55  37  50 S18       29.89F
ROLLA          SUNNY     54  33  45 S20G28    29.93F
LEBANON        SUNNY     59  30  33 S16G26    29.94F
OSAGE BEACH    SUNNY     61  34  36 SW16G22   29.92F
SPRINGFIELD    SUNNY     62  33  33 SW24G30   29.94F
BRANSON        MOSUNNY   59  32  36 S17       30.01F
JOPLIN         SUNNY     62  34  35 SW22G30   29.92F
WEST PLAINS    SUNNY     53  32  44 S14G20    30.03F

$$

IAZ060-094-KSZ022-034>040-054-083-096-NEZ052-066-093-282100-
...KANSAS...SOUTHEAST NEBRASKA AND IOWA...

CITY           SKY/WX    TMP DP  RH WIND       PRES   REMARKS
TOPEKA         MOSUNNY   62  33  33 S10       29.80F
MANHATTAN      MOSUNNY   63  33  32 SW14      29.79F
EMPORIA        MOSUNNY   65  32  29 S22G29    29.80F
CHANUTE        SUNNY     61  34  36 S22G29    29.86F
WICHITA        MOSUNNY   60  34  37 S22       29.84F
OMAHA          MOSUNNY   48  30  49 S15       29.73F
LINCOLN        MOSUNNY   56  30  37 S12       29.71F
FALLS CITY     PTSUNNY   57  31  37 S10       29.77F
LAMONI         MOSUNNY   48  31  51 S15       29.79F
DES MOINES     MOSUNNY   41  28  60 S7        29.80F

$$



USA.gov is the U.S. government's official web portal to all federal, state and local government web resources and services.